Wind_Speed
32 34 34 34 35 36 35 33 31 32 34 34 33 33 33 33 32 31 31 31 32 32 33 34 34 35 36 36 36 37 38 39 40 41 40 40 40 40 40 39 39 38 38 38 38 38 39 39 40 40 41 41 42 42 42 41 40 39 39 38 38 38 38 38 38 39 39 38 37 36 36 37 38 38 38 38 38 37 37 37 37 37 38 39 41 42
33 34 34 33 33 34 34 33 31 31 33 35 35 35 34 34 33 33 32 32 32 32 32 33 34 35 36 37 38 39 39 40 40 39 39 38 38 38 38 38 37 37 37 37 37 38 39 39 40 40 40 40 40 40 39 38 37 36 36 36 36 36 37 37 38 38 38 37 36 35 35 35 36 37 38 39 39 39 39 39 38 38 39 40 41 42
33 34 34 32 31 31 32 33 33 33 34 36 36 36 35 35 34 34 32 32 32 32 33 34 35 36 37 38 39 39 39 38 38 37 37 37 37 37 37 37 37 37 37 38 38 39 39 39 39 39 38 38 37 37 36 35 35 35 35 35 35 36 37 37 37 36 36 35 34 35 35 36 37 38 39 40 41 41 41 40 40 40 40 40 41 42
32 33 34 33 32 32 32 34 36 37 37 37 36 36 35 34 34 34 33 33 33 34 34 35 36 37 38 38 39 38 37 36 36 36 37 37 37 37 37 37 37 37 38 38 38 38 38 38 37 36 36 35 35 34 34 34 34 34 35 35 36 36 36 35 35 34 34 34 35 36 38 39 40 40 41 41 42 42 41 41 41 41 41 41 41 42
31 32 33 34 34 34 35 35 37 38 37 36 35 34 33 33 33 33 34 34 34 35 36 36 37 37 38 38 38 38 36 36 36 37 38 38 38 38 37 37 37 38 38 38 38 37 36 36 35 35 34 34 34 33 34 34 34 34 34 35 36 36 36 36 35 35 36 36 38 39 40 41 42 42 42 42 42 42 42 42 41 41 41 41 41 42
32 32 33 33 34 35 37 37 36 36 36 35 33 32 32 32 32 33 34 35 35 36 37 38 37 37 37 37 37 37 37 38 38 38 38 38 38 37 37 37 37 37 37 37 37 36 35 35 35 34 34 34 33 33 33 33 33 33 33 34 36 37 39 39 39 40 40 41 41 42 42 42 42 42 42 42 42 41 41 41 41 41 41 41 41 42
34 33 32 32 34 36 37 37 36 35 34 34 32 31 30 31 33 35 36 37 38 38 38 38 37 37 37 37 37 38 39 39 39 39 38 37 36 36 35 35 36 36 36 36 36 36 35 35 35 34 34 34 34 33 33 33 32 32 34 36 38 40 42 43 43 43 43 43 43 43 42 42 42 41 41 41 40 40 40 40 40 41 41 41 41 41
36 35 33 33 35 36 37 36 35 33 32 31 30 31 33 35 37 38 38 38 38 38 37 37 37 37 38 38 38 39 39 39 39 38 37 36 35 34 35 35 35 36 36 36 35 35 35 34 34 34 34 33 33 33 33 33 34 36 38 41 42 43 43 43 43 43 42 42 41 41 40 40 40 39 39 38 38 39 39 39 39 40 40 40 41 41
37 35 34 34 35 36 37 35 32 29 27 28 31 34 37 39 39 39 39 39 38 37 36 37 38 39 39 38 38 37 37 36 36 35 35 34 35 35 35 35 36 36 36 35 35 34 34 33 33 33 32 32 32 33 34 36 39 41 43 44 43 42 42 41 40 40 39 39 38 38 37 37 37 36 36 36 37 37 38 38 39 39 39 40 40 41
36 34 34 35 35 35 34 31 28 27 29 32 35 37 38 38 37 38 39 39 39 38 37 38 38 39 39 38 36 35 34 34 34 34 34 34 35 35 35 35 36 36 35 34 33 33 32 31 31 31 33 34 36 38 40 42 44 44 43 41 40 39 38 37 36 36 36 35 35 35 34 34 34 34 35 35 36 36 37 38 38 38 38 39 39 40
33 33 34 36 36 33 28 27 29 32 34 37 38 38 35 33 34 36 39 40 41 41 39 38 37 36 36 35 34 33 33 34 35 36 36 35 35 35 34 34 34 33 33 32 31 30 31 32 34 36 38 40 41 42 43 43 42 40 39 37 36 35 35 34 34 34 33 33 33 33 33 33 33 33 34 34 35 36 37 37 37 37 37 37 38 39
33 35 37 35 31 27 27 28 31 34 35 36 36 36 34 34 34 35 37 40 42 41 39 37 35 33 32 32 33 33 33 35 36 37 37 36 35 34 33 33 33 32 31 32 33 34 36 39 40 41 42 42 41 40 39 38 37 35 34 34 33 33 32 32 33 32 32 32 32 32 32 32 33 33 34 34 35 36 37 37 37 37 37 37 37 38
35 35 32 29 26 27 29 31 32 33 34 34 34 35 36 37 37 37 37 39 39 38 36 34 33 33 32 32 32 33 34 36 37 37 36 33 32 31 32 33 33 33 34 35 38 41 42 42 41 41 40 39 37 36 35 34 33 32 31 30 30 30 31 32 32 32 32 32 32 32 32 32 33 33 34 35 36 37 37 38 39 39 38 38 37 36
33 29 26 26 28 30 31 32 32 33 34 34 35 36 37 39 39 38 37 37 36 35 33 32 32 32 33 33 33 33 33 34 34 34 32 30 30 30 31 33 34 35 36 37 40 42 42 41 40 39 38 37 36 35 34 33 32 31 30 30 30 31 32 32 32 32 33 33 33 33 33 34 34 35 36 37 37 38 38 39 39 39 38 37 35 34
26 25 27 29 31 32 32 32 33 34 35 36 37 38 38 38 37 36 34 34 34 33 32 32 34 35 34 33 31 30 31 31 31 30 31 31 31 31 31 34 36 37 37 37 38 39 39 38 37 38 38 37 36 35 34 33 33 32 32 32 33 33 33 34 34 33 33 33 34 34 35 35 36 36 37 38 39 39 39 38 38 37 35 34 33 32
27 29 31 32 33 33 33 33 34 36 37 38 38 38 37 37 36 34 33 33 32 31 31 33 35 37 37 34 31 29 29 29 30 31 32 33 33 33 32 34 36 37 36 35 36 37 37 37 38 38 37 37 36 34 34 33 33 34 34 34 35 34 34 34 34 34 34 34 35 35 36 36 37 37 38 39 39 39 38 38 37 36 35 33 32 31
31 32 33 33 34 35 35 35 36 36 37 37 37 36 35 35 35 34 32 31 30 31 32 33 33 35 36 35 32 29 27 27 29 32 34 35 35 34 33 33 34 35 35 34 35 36 37 37 37 37 36 36 35 35 34 34 34 34 35 35 35 35 35 35 34 34 34 34 35 36 36 36 37 37 38 38 38 38 38 37 36 36 35 34 33 32
34 33 34 34 35 36 36 36 35 35 35 35 36 36 37 36 34 32 30 29 29 31 33 34 35 34 33 34 33 31 28 28 31 33 35 36 36 35 33 32 32 33 34 35 36 36 35 36 35 36 37 37 36 35 34 34 34 34 34 34 34 34 34 33 33 34 34 35 35 36 36 36 36 37 37 37 38 38 37 36 36 35 35 35 34 34
34 35 35 35 36 36 36 35 34 33 34 34 37 39 40 37 33 30 28 29 32 34 34 33 33 33 33 34 35 34 31 30 32 34 36 37 37 35 33 30 30 32 34 35 35 35 35 37 38 38 37 36 35 34 34 34 34 34 34 34 33 33 34 34 35 35 35 35 35 35 35 35 35 36 36 36 36 36 36 35 35 34 34 34 34 34
35 35 35 35 35 35 35 35 34 33 34 36 39 40 39 35 32 31 32 34 35 35 35 34 33 33 33 34 35 35 33 33 35 36 37 38 37 35 32 30 31 33 35 35 36 36 36 38 38 38 36 35 34 34 33 33 33 34 34 34 35 35 36 36 36 36 35 35 35 35 34 34 35 35 35 35 35 35 35 34 34 34 34 34 34 34
36 36 35 35 34 35 34 35 35 35 36 37 38 37 35 34 34 35 36 36 36 35 34 33 33 34 34 35 36 37 37 36 36 37 38 37 35 33 31 31 33 35 35 35 35 36 36 37 37 36 35 35 34 33 33 33 34 34 35 36 36 36 36 36 36 35 35 35 35 35 34 34 34 34 34 34 34 34 34 34 34 34 34 34 34 35
35 35 35 35 35 36 37 39 39 37 37 36 35 34 34 35 36 37 37 37 37 36 35 35 36 36 38 39 39 39 37 35 34 35 35 35 34 33 32 31 32 33 34 36 37 37 35 34 33 33 33 33 33 34 34 35 35 36 36 36 36 35 35 35 35 35 35 35 35 35 35 34 34 34 34 34 34 34 34 34 34 34 35 35 35 35
34 34 34 34 34 35 37 38 38 37 36 35 34 34 35 36 37 37 37 37 37 37 37 38 39 39 40 40 39 37 35 33 32 31 31 32 33 34 33 32 32 33 34 35 34 33 33 33 33 34 34 35 35 35 35 36 36 36 35 35 35 35 35 35 35 35 35 35 35 35 35 35 34 34 34 34 34 34 34 34 35 35 35 35 36 36
32 32 32 32 33 34 35 36 36 36 35 35 35 35 35 36 36 36 36 36 37 38 39 40 41 40 39 36 35 33 31 29 28 28 29 31 33 34 33 32 31 32 33 34 33 32 33 34 35 36 36 37 36 36 36 36 35 35 35 35 35 35 35 35 34 35 35 35 36 35 35 35 35 35 34 34 35 35 35 36 36 36 37 37 38 38
29 30 30 31 32 34 34 35 35 35 35 34 34 34 35 35 34 33 34 35 36 37 38 38 38 37 35 33 31 30 29 27 27 27 30 31 33 34 33 31 30 32 34 34 33 33 34 35 36 36 36 37 37 37 36 35 35 34 34 34 34 34 34 35 35 35 35 35 35 36 36 36 36 36 36 36 37 37 37 38 38 38 38 38 38 39
27 29 30 32 33 34 34 34 34 33 32 32 32 32 32 32 32 33 34 35 35 36 36 35 35 34 32 31 30 29 29 28 27 28 30 30 32 33 33 30 30 31 33 34 34 33 33 34 35 36 36 37 38 38 36 35 34 33 33 33 33 34 34 34 34 35 35 35 36 36 36 36 37 37 37 38 38 38 38 38 38 38 38 38 38 38
28 30 32 34 34 34 33 32 32 31 31 30 30 30 30 30 31 32 33 34 34 34 34 34 33 33 32 30 30 29 29 29 28 28 28 29 30 31 31 30 30 31 33 34 34 34 34 34 35 36 36 37 37 36 35 34 33 33 32 33 33 34 34 35 35 35 36 36 36 36 36 37 37 38 38 38 38 38 38 38 38 37 37 36 37 37
31 33 35 34 34 32 32 31 31 31 31 30 29 29 28 29 30 32 33 34 34 34 33 32 31 31 32 31 31 31 31 30 28 27 27 27 28 29 31 31 30 31 33 34 35 35 34 33 34 34 35 35 34 34 33 33 33 32 32 33 34 35 35 35 35 35 35 36 36 36 36 37 37 38 38 38 38 38 38 38 37 37 36 37 37 38
35 35 34 33 32 32 32 32 32 31 31 30 29 28 27 28 29 31 33 34 34 33 31 31 31 32 32 33 34 33 31 28 26 25 25 26 27 30 31 31 30 31 32 34 36 35 33 31 30 31 31 31 32 32 33 34 34 34 34 35 36 35 35 35 35 34 35 35 35 36 36 37 37 38 38 39 39 39 39 38 38 38 38 38 39 39
36 35 33 32 32 32 32 32 32 32 31 30 30 29 28 28 29 31 32 32 32 31 31 31 32 32 33 33 33 32 30 27 24 24 26 27 29 31 31 31 31 31 31 32 33 34 33 31 29 27 28 29 31 33 34 35 36 36 36 37 36 36 35 34 34 34 34 35 35 36 37 37 38 38 38 38 38 38 39 38 38 38 38 38 39 40
35 34 33 33 33 33 32 32 32 32 31 31 31 30 30 29 30 30 31 30 31 31 32 32 32 33 33 32 31 29 29 28 28 28 29 29 30 31 32 32 32 32 31 30 29 29 31 33 32 29 29 30 32 33 33 33 34 34 35 35 36 35 35 35 34 35 35 36 37 37 38 38 37 36 35 35 35 35 35 35 35 36 36 37 39 41
33 33 33 33 33 33 32 31 31 31 32 31 31 31 30 30 29 29 29 30 31 32 32 32 33 34 34 33 31 30 30 31 32 32 31 31 32 32 32 33 33 32 32 30 29 29 28 32 35 35 34 33 32 32 32 32 32 33 33 33 34 35 35 36 36 36 38 38 38 38 37 35 33 32 31 30 30 30 30 31 31 32 34 36 39 41
33 33 33 33 33 32 31 31 31 31 31 31 31 30 30 30 29 29 30 31 31 32 31 32 33 34 35 34 34 33 33 33 33 32 32 33 33 33 33 33 33 33 32 31 31 31 30 33 36 38 37 35 33 31 31 32 33 32 32 33 35 37 38 39 40 40 40 39 38 36 34 32 30 29 28 28 27 27 27 27 27 28 31 34 36 39
34 34 33 33 32 31 31 31 31 31 31 30 30 30 30 30 30 30 31 32 32 32 31 32 33 34 35 35 34 34 34 34 34 34 33 34 35 35 35 34 34 33 33 33 32 31 32 34 35 35 35 35 34 32 31 32 32 32 32 34 36 39 41 42 41 40 39 37 36 35 33 32 30 29 28 27 26 25 25 24 24 25 27 30 33 35
34 33 33 32 31 30 31 31 31 31 30 30 30 30 30 30 31 32 32 32 32 32 31 31 32 33 34 35 35 36 36 37 36 35 34 35 36 37 36 36 35 33 34 34 33 33 32 33 34 34 34 35 35 34 32 31 31 32 34 36 39 40 42 41 40 38 38 37 36 35 34 33 33 32 30 29 27 26 25 24 23 23 24 26 29 32
33 32 31 30 30 30 31 31 31 31 31 30 31 31 31 32 32 32 32 32 32 32 32 32 32 32 32 33 35 37 38 38 37 35 34 34 35 37 37 37 36 35 36 36 35 34 33 33 34 35 34 34 34 35 34 32 32 34 37 39 40 41 41 40 39 38 37 37 37 37 36 35 35 34 33 31 30 28 27 26 24 23 23 23 25 28
31 30 30 30 30 30 31 30 31 31 31 31 32 32 33 33 33 33 33 33 33 33 33 33 33 33 33 33 34 35 37 37 36 34 33 32 33 34 36 36 36 35 36 36 36 36 35 34 34 35 33 32 32 32 34 35 36 37 40 41 41 41 40 39 38 37 37 38 38 37 36 36 35 35 34 33 31 30 29 27 25 23 22 21 22 24
30 30 30 30 31 31 31 31 31 31 31 32 32 33 33 34 34 33 33 33 33 33 33 33 33 34 34 34 35 35 36 36 35 33 31 30 30 31 34 35 35 35 35 35 36 37 37 35 33 32 31 31 32 33 36 37 38 40 41 41 41 40 39 39 38 38 38 38 37 37 36 35 35 34 33 32 31 30 29 27 25 23 21 20 19 20
30 30 30 30 30 31 31 31 31 31 32 32 33 33 33 34 34 33 33 33 33 33 33 33 34 35 35 36 36 36 35 34 33 32 30 30 29 29 31 33 34 34 33 34 34 35 36 34 32 31 31 32 34 36 38 38 39 41 42 42 41 40 39 38 38 37 37 37 37 37 36 34 33 33 32 31 30 30 29 27 25 23 21 21 20 19
30 30 30 30 31 31 31 31 31 32 32 32 33 33 33 34 33 33 33 33 33 33 33 33 34 35 36 37 36 36 34 33 32 31 30 29 29 28 28 30 31 32 32 32 32 33 33 32 32 31 32 34 36 37 38 39 39 39 40 40 40 40 40 38 38 37 37 37 37 37 36 34 32 31 31 30 29 28 27 26 24 22 21 21 21 20
30 30 31 31 31 32 31 31 32 32 32 32 32 32 33 33 33 33 33 33 33 33 34 35 36 37 37 37 36 35 33 32 31 31 30 30 28 27 26 27 27 28 29 30 30 30 30 30 31 32 33 35 36 36 37 37 37 37 37 37 38 40 40 39 38 37 36 36 35 35 34 33 31 30 29 27 26 25 24 23 23 22 20 19 18 19
30 31 32 31 31 31 31 32 32 32 32 31 31 32 32 32 33 33 33 34 33 34 34 36 37 38 39 38 36 34 32 31 31 31 31 30 28 26 25 25 25 26 27 28 28 28 28 29 30 31 32 33 34 35 36 36 36 36 35 36 38 39 40 39 37 35 36 35 33 31 31 30 29 28 26 25 23 22 21 21 21 20 19 18 17 16
30 31 32 32 31 31 32 32 32 32 31 31 31 32 32 32 32 33 33 33 34 35 36 37 38 38 38 37 36 34 33 32 32 31 31 29 27 26 25 25 25 25 25 25 26 27 27 27 28 29 29 30 31 32 35 35 35 35 34 35 36 37 37 38 37 36 34 33 31 29 28 28 27 26 25 23 22 21 21 21 20 20 18 17 15 14
30 31 31 31 32 32 32 32 32 31 31 32 32 33 33 33 33 33 33 34 34 35 37 38 37 37 36 35 34 34 34 34 34 32 31 29 27 26 26 26 25 24 23 23 25 27 27 27 27 26 26 26 27 29 31 33 34 34 34 34 34 34 35 37 38 37 35 32 30 28 27 26 26 25 24 23 22 22 22 22 22 21 19 17 14 12
30 31 31 31 31 31 32 32 32 32 32 32 33 33 33 33 33 33 33 34 35 36 37 37 36 35 33 33 33 34 35 35 35 34 33 31 28 27 27 26 24 23 23 23 24 24 25 25 25 24 24 24 25 26 28 30 32 33 34 34 35 35 36 36 36 36 35 33 30 27 26 26 26 26 26 25 24 24 24 24 25 24 22 18 14 10
30 31 31 32 32 32 32 32 32 32 32 32 33 34 34 33 33 33 34 34 35 36 36 36 34 32 32 33 34 34 35 36 35 35 34 32 31 29 27 25 24 24 24 24 23 22 21 21 21 22 22 22 23 24 26 28 30 32 34 35 35 36 36 35 35 34 33 32 30 28 26 26 26 27 28 28 27 26 25 26 26 27 25 21 15 10
31 31 32 32 32 32 32 33 32 32 32 33 34 34 34 34 34 34 34 35 35 35 35 35 34 33 32 32 33 33 34 34 34 35 34 33 31 29 28 26 25 25 25 25 24 22 19 17 17 18 19 21 23 24 26 28 29 31 33 35 36 36 36 36 34 33 31 30 29 28 27 27 28 29 29 29 28 28 27 27 28 28 27 23 17 10
31 31 31 32 32 32 32 32 32 32 32 33 34 35 34 33 34 34 35 35 35 35 34 34 34 33 33 32 32 32 32 32 33 34 34 33 32 30 29 28 27 26 25 24 23 21 18 15 14 14 15 18 21 24 27 29 30 31 33 34 35 36 36 36 35 33 31 29 28 27 27 28 29 30 30 30 30 29 29 28 29 29 28 25 19 11
30 31 31 32 32 33 32 32 32 32 33 34 35 35 35 34 34 34 34 34 34 34 34 34 34 33 32 32 33 32 31 31 32 33 33 32 31 30 29 29 28 27 26 24 22 19 16 13 10 10 12 15 19 23 26 29 30 31 33 34 35 36 37 36 35 33 32 30 28 26 26 27 28 29 30 31 31 31 30 30 30 30 30 27 21 12
31 31 31 31 32 32 33 33 32 33 34 35 35 36 36 35 35 34 34 34 34 33 33 33 33 32 32 32 32 32 32 32 33 33 32 31 30 30 29 29 29 29 28 26 24 22 19 16 12 10 11 15 19 23 26 28 30 32 33 35 35 36 37 37 36 34 32 31 29 27 27 27 28 29 30 31 31 32 31 31 31 31 31 29 23 14
31 31 32 32 32 32 33 33 33 33 34 35 35 36 36 36 36 36 35 34 34 34 34 33 33 31 30 31 32 32 31 32 32 32 32 30 30 29 29 28 29 29 30 29 29 28 26 24 21 18 16 17 18 21 24 26 29 31 34 35 36 36 37 37 36 35 33 31 29 28 28 28 29 30 30 31 31 32 32 32 32 32 33 33 28 18
Wind_Direction
298 300 301 302 303 303 302 303 303 303 302 302 301 300 300 299 298 297 296 295 294 294 294 294 294 295 295 295 295 295 294 295 295 295 294 294 294 293 293 292 291 290 289 288 287 287 286 286 285 285 285 285 285 286 285 284 283 281 280 279 278 278 278 278 277 277 275 274 273 272 272 272 273 274 275 276 276 276 275 274 273 272 271 270 269 268
301 301 302 303 304 303 302 303 303 302 301 300 300 300 299 299 298 297 296 295 294 294 294 295 296 296 296 296 296 296 296 296 295 295 294 294 294 293 292 291 290 289 289 289 288 288 287 287 286 286 286 286 286 285 285 283 282 281 281 280 279 278 277 276 274 273 273 273 273 273 274 274 275 276 276 276 276 276 275 275 274 273 272 270 269 268
303 303 303 304 303 302 302 303 303 301 300 299 299 299 299 298 297 295 295 295 295 295 296 297 298 297 296 297 297 297 296 296 295 295 294 294 294 293 292 291 290 289 290 289 289 289 288 288 287 287 286 286 285 284 284 283 282 282 281 281 279 277 275 273 271 271 271 273 274 275 276 277 278 278 277 276 276 275 275 275 274 273 271 270 268 267
302 303 303 304 304 302 300 301 301 300 300 300 300 300 299 296 294 293 294 296 298 299 299 299 299 298 297 297 297 297 296 295 295 295 294 294 293 292 291 290 290 289 289 289 289 289 289 288 288 287 286 286 285 284 284 283 283 283 282 281 280 278 276 274 274 274 274 275 277 277 278 279 279 278 277 276 275 275 274 274 273 272 270 268 267 265
302 302 302 304 303 302 300 299 299 300 300 300 300 298 296 294 294 295 298 300 301 302 301 301 300 299 298 298 297 297 296 294 294 294 294 293 292 291 290 289 289 289 289 290 290 290 289 288 288 287 286 286 285 284 284 283 283 282 281 282 282 281 281 281 280 280 280 280 280 279 280 280 279 278 276 275 274 274 273 272 271 270 268 267 266 265
300 300 301 301 300 300 300 299 299 299 300 299 297 295 293 295 298 301 303 304 304 303 302 302 301 300 299 297 296 296 295 295 294 294 293 292 291 290 289 289 289 289 290 290 290 290 289 289 288 287 286 286 285 284 283 282 281 281 282 283 284 284 284 284 283 282 281 281 281 280 280 279 278 276 275 274 273 272 271 270 269 268 267 266 265 264
298 297 298 298 299 299 299 299 299 298 297 295 295 296 298 301 304 305 305 305 305 304 304 303 301 300 299 297 296 296 295 295 294 293 293 292 291 289 289 289 289 290 290 290 290 290 289 288 287 287 286 284 283 282 280 280 281 282 283 284 285 285 284 283 283 282 281 281 280 280 279 278 276 275 274 273 272 271 270 269 268 267 265 265 264 263
297 296 296 298 299 299 298 297 296 295 294 294 298 303 307 308 307 307 306 306 306 305 304 303 301 300 298 297 297 296 295 295 295 294 294 293 292 291 290 290 290 290 291 291 290 289 288 287 286 285 283 282 281 280 280 280 281 283 285 286 286 285 283 282 281 281 280 280 279 278 277 276 275 274 273 272 271 270 268 268 267 266 265 264 263 262
294 294 296 298 298 297 296 295 294 295 297 301 306 309 310 310 309 308 307 306 305 304 303 302 301 299 298 297 297 296 296 295 294 294 294 293 293 293 292 292 291 291 291 290 290 289 287 285 283 282 281 281 281 282 283 282 283 285 286 286 285 284 283 282 281 280 279 279 278 277 276 275 274 273 272 271 270 269 268 267 266 265 265 264 263 262
294 295 297 298 297 295 293 295 298 302 306 309 310 310 310 309 308 308 306 305 304 303 302 302 301 300 299 299 298 297 297 296 295 294 294 293 293 293 293 293 292 291 290 289 288 286 284 282 281 282 283 283 284 284 285 285 286 286 286 285 284 283 283 282 281 280 279 278 277 276 275 274 274 273 272 271 270 269 268 267 266 265 264 264 263 262
296 298 298 298 296 295 296 300 305 308 311 311 311 310 308 306 306 306 306 305 304 304 303 302 300 299 299 299 299 299 298 297 297 298 297 296 296 296 296 296 295 293 290 288 286 284 283 284 286 287 287 287 287 287 287 287 287 287 286 285 284 283 283 282 281 280 279 278 277 277 276 275 274 274 272 271 271 269 268 266 265 265 265 264 263 262
298 299 297 296 297 301 305 308 310 311 311 310 309 308 306 305 305 305 304 304 304 303 303 302 301 299 298 299 300 301 300 300 300 300 300 300 300 300 299 299 297 294 292 290 288 288 289 290 290 290 290 290 289 289 289 288 288 287 287 286 285 284 283 283 282 282 281 280 279 279 278 277 276 275 274 273 271 270 268 268 268 267 267 266 264 262
298 298 296 299 303 308 310 311 310 309 309 308 307 306 306 305 305 304 303 301 301 301 301 300 300 300 300 301 301 302 302 302 302 302 301 299 299 299 299 298 296 295 293 292 292 292 293 293 293 293 293 292 291 291 291 291 290 290 289 288 287 286 285 285 284 283 283 282 281 280 279 278 277 276 275 273 271 269 269 269 270 271 270 269 266 262
299 300 303 308 310 310 310 309 309 308 307 306 306 305 304 305 305 304 302 300 299 299 299 299 299 301 302 303 302 302 302 302 301 300 299 297 297 297 297 296 295 293 293 292 292 293 295 295 295 295 295 295 295 295 295 295 295 294 293 292 290 288 287 286 285 284 283 282 282 281 280 279 278 276 275 273 271 270 272 273 274 274 274 271 268 264
304 309 312 312 310 309 308 308 307 306 306 305 305 304 304 304 303 302 300 299 299 300 301 302 303 303 303 302 302 301 301 300 299 298 297 297 296 296 296 295 294 293 292 291 292 293 296 295 295 295 296 297 297 297 297 296 295 294 292 290 289 288 287 286 285 283 283 282 281 281 280 279 278 277 276 274 275 276 277 280 280 279 277 274 270 266
312 314 313 310 308 307 307 306 306 305 305 305 305 304 304 302 301 300 298 297 298 301 304 306 306 305 304 303 302 302 302 301 299 298 298 297 297 296 296 294 293 293 292 292 292 294 295 295 296 296 297 298 298 297 295 293 292 291 289 288 288 287 286 285 283 283 282 282 282 281 281 279 278 278 277 277 277 278 280 282 283 281 279 276 273 270
313 312 310 308 306 306 305 305 305 304 304 305 305 304 302 299 298 296 295 296 300 304 306 307 306 304 304 304 304 304 304 303 301 299 299 297 297 297 296 295 293 292 293 293 293 293 294 295 296 297 297 297 297 296 294 292 290 290 289 289 289 288 287 286 285 284 283 283 283 282 281 280 279 278 277 277 278 279 280 281 281 279 277 276 274 271
310 309 307 305 304 304 304 304 304 304 305 306 305 304 301 297 295 294 295 299 303 306 306 304 302 300 300 301 303 305 306 304 302 301 299 297 297 297 297 295 293 292 293 293 293 293 293 294 294 295 297 297 296 294 292 292 291 291 290 290 289 289 288 288 287 286 285 284 283 282 281 281 280 279 278 278 278 279 279 279 279 278 276 274 273 271
307 306 305 304 303 303 303 303 303 303 304 305 305 303 299 297 296 297 300 303 305 304 303 300 298 297 297 298 300 303 305 304 303 301 299 297 296 297 297 295 294 293 293 293 293 293 294 295 297 298 297 296 294 293 292 292 291 291 290 290 290 289 289 288 287 286 285 284 283 282 282 281 280 280 279 278 278 278 278 278 278 276 274 273 272 270
305 304 302 302 302 302 301 301 301 302 303 305 305 303 299 298 300 302 304 304 304 302 300 298 297 297 297 298 299 301 303 304 303 300 297 296 296 297 297 296 296 295 293 293 294 295 296 297 299 299 297 296 295 294 293 292 291 291 291 290 290 289 289 288 287 287 286 285 284 283 282 282 281 280 280 279 278 278 277 277 276 275 273 272 271 270
303 302 301 302 301 299 298 299 301 303 304 307 307 305 302 303 304 304 304 304 303 302 300 299 297 297 298 298 299 300 303 303 301 298 296 295 294 295 297 298 297 296 294 294 295 296 298 298 299 299 297 297 296 294 292 291 290 290 290 290 290 290 289 289 289 288 287 286 285 285 284 283 282 280 279 278 277 277 276 275 274 273 272 271 270 269
301 300 302 304 303 300 300 302 304 306 308 309 308 306 305 304 304 303 303 303 302 302 301 299 298 297 297 297 298 300 303 302 300 297 296 294 294 295 298 299 298 296 294 295 297 299 299 298 297 296 295 294 293 292 291 291 290 291 291 292 293 293 292 291 290 289 289 288 287 285 284 283 282 281 279 278 277 276 274 273 272 272 272 271 270 270
301 301 302 304 305 304 305 306 308 309 308 307 306 304 303 303 302 302 302 302 302 301 300 300 299 299 299 299 300 301 302 302 300 298 296 294 294 296 299 300 299 297 295 296 298 299 298 296 294 293 293 292 292 292 292 293 293 293 293 293 293 293 292 291 290 290 289 288 287 286 285 284 282 281 280 278 277 275 274 273 272 272 271 270 269 269
302 302 303 305 305 306 306 305 305 304 304 303 302 302 301 301 301 301 300 301 301 301 301 302 302 301 300 299 300 300 301 301 300 298 295 293 293 296 299 300 299 298 296 297 298 297 296 296 295 294 294 295 294 295 296 296 294 293 293 292 292 292 291 291 290 290 289 288 288 287 286 285 283 282 280 279 277 276 275 274 273 272 270 268 267 268
302 302 303 304 304 303 302 301 300 301 301 302 302 302 302 302 302 301 301 301 302 302 303 302 301 299 299 300 299 299 300 300 299 297 296 294 295 297 299 300 298 297 297 298 298 298 298 297 297 296 296 296 296 297 297 296 295 293 293 293 292 291 290 290 289 289 289 288 288 287 286 285 284 282 281 279 278 277 275 274 273 272 270 268 267 267
303 303 303 303 302 302 301 301 301 302 303 304 304 304 305 305 304 304 303 303 303 303 303 301 299 298 299 299 299 300 301 302 301 299 297 296 296 297 299 300 299 298 298 299 300 300 299 298 297 296 296 296 297 299 299 299 299 297 295 293 292 292 291 291 290 289 289 288 287 286 286 285 283 282 280 279 278 277 276 275 273 272 271 269 268 267
306 305 305 305 305 306 306 306 306 307 307 307 307 307 307 307 306 304 303 303 304 304 302 300 299 299 300 300 300 301 303 304 303 302 300 297 295 295 298 301 302 300 300 300 300 300 299 297 296 296 296 297 299 301 302 302 302 300 297 295 294 294 293 292 291 290 289 288 287 286 286 284 283 282 281 280 279 278 277 276 275 273 272 270 269 268
310 309 309 310 311 312 313 312 311 311 311 310 311 311 310 308 306 303 302 304 305 305 302 299 299 300 301 302 302 302 304 304 304 304 304 300 296 295 299 303 303 302 302 301 301 301 299 297 296 297 298 300 302 302 302 302 301 298 295 295 295 294 294 294 293 291 290 289 288 287 287 285 284 283 283 282 281 280 279 278 276 275 273 271 269 267
312 312 313 315 317 318 318 317 316 315 314 314 313 313 312 309 306 304 304 307 307 305 302 300 300 300 301 302 303 304 304 304 305 307 307 303 298 297 301 303 304 304 304 304 304 303 301 298 298 299 300 301 301 301 300 300 299 297 297 297 297 297 298 297 296 295 293 292 291 290 289 288 286 285 283 282 280 279 277 276 274 273 272 270 268 266
315 317 318 320 321 321 320 319 318 317 317 316 316 315 313 311 309 307 308 308 307 304 302 301 301 301 302 303 304 305 305 305 307 309 309 305 301 300 303 303 304 305 306 307 307 306 304 303 301 301 300 300 300 299 299 299 300 300 301 303 303 303 303 301 299 297 295 294 293 292 290 288 286 284 282 280 278 276 274 272 271 269 268 266 265 264
319 321 321 321 321 321 320 319 318 317 317 317 317 316 315 313 312 311 310 308 306 304 302 302 301 301 302 302 303 303 303 305 307 309 309 305 301 301 303 304 304 305 307 307 306 305 306 306 305 304 303 302 301 301 301 301 302 303 305 305 305 305 304 303 301 298 297 295 294 293 291 290 289 287 284 282 279 276 273 270 268 266 264 263 262 261
321 320 319 320 321 321 320 319 318 318 317 317 317 316 315 315 313 311 310 309 307 306 303 302 301 301 301 300 299 298 299 302 306 310 310 305 302 302 303 304 304 305 306 305 302 300 301 303 305 306 305 304 303 303 303 303 304 305 306 305 304 304 303 303 301 299 298 298 298 298 298 297 296 294 292 289 285 281 277 272 268 265 263 261 260 260
322 321 320 321 322 322 320 319 318 318 317 317 317 316 316 315 314 312 311 311 310 308 305 303 302 301 301 300 299 297 298 301 306 310 310 306 303 303 304 304 304 305 305 304 302 298 296 297 300 303 305 305 305 305 305 306 307 307 307 305 304 303 303 303 303 303 303 304 305 306 306 306 305 303 301 298 294 290 284 279 273 267 263 261 260 260
322 322 322 323 322 321 320 319 318 317 317 317 317 317 316 316 315 315 314 313 312 310 307 305 303 302 302 301 300 299 300 302 307 312 312 308 305 304 305 305 305 305 305 304 303 300 297 297 298 301 304 305 306 305 306 307 308 307 306 304 303 303 305 307 308 309 310 311 312 312 313 313 313 311 309 306 302 298 293 288 281 273 266 262 260 260
322 323 323 322 321 320 319 318 318 318 318 318 318 318 317 317 317 316 316 315 314 312 310 308 307 305 303 302 300 300 302 306 312 316 315 311 308 306 306 305 305 305 305 304 303 301 300 299 299 301 303 305 306 306 306 307 307 307 305 304 305 306 309 312 313 314 315 316 316 316 317 318 318 316 315 312 310 306 302 297 290 282 273 266 261 259
323 323 322 321 320 319 319 319 319 319 319 319 319 319 319 319 318 318 318 317 316 315 313 313 312 310 307 304 302 302 304 310 316 320 320 317 314 309 305 304 305 306 304 302 302 301 300 300 301 302 303 304 305 306 307 308 308 307 307 308 310 312 314 317 318 318 318 318 318 319 320 320 319 318 317 316 314 312 308 303 297 290 282 273 264 258
322 321 321 320 320 319 319 319 319 320 320 320 320 320 320 320 320 319 319 320 320 319 318 317 316 315 314 312 309 308 311 316 320 322 323 323 319 313 307 306 307 307 304 301 300 301 301 301 302 303 304 303 304 305 307 309 310 309 310 312 314 316 318 321 323 322 320 319 319 321 321 321 320 319 319 318 316 314 311 307 303 297 290 281 271 261
321 320 320 320 320 320 320 320 320 321 321 320 320 321 321 321 322 322 322 322 322 322 320 319 318 318 318 318 318 318 319 321 323 325 326 326 323 318 312 309 309 308 306 303 302 302 301 300 301 303 304 304 304 304 305 308 309 310 313 316 318 319 321 324 325 324 323 322 322 323 323 323 323 322 321 320 318 316 313 312 309 306 300 292 281 269
321 320 320 320 321 321 321 320 320 321 321 321 321 321 321 323 323 324 323 323 323 322 321 320 320 321 321 323 324 324 324 324 326 327 328 328 326 322 316 311 309 308 308 307 306 305 303 301 300 301 303 304 304 304 306 307 309 312 316 319 321 323 325 326 327 326 326 325 325 325 326 327 327 325 324 324 322 320 317 317 316 313 307 300 291 280
321 320 320 321 322 322 321 321 321 321 322 322 322 323 324 325 325 324 324 324 324 323 323 323 323 324 325 325 326 326 327 327 328 329 329 329 328 325 320 314 310 310 311 311 311 309 306 303 301 301 301 301 301 303 306 309 312 315 317 317 318 322 328 330 331 331 331 330 329 328 329 330 331 331 330 329 328 325 323 322 321 318 313 305 296 287
321 321 321 322 323 324 323 322 323 323 323 323 324 324 325 326 325 325 325 325 325 325 326 327 328 328 328 328 328 328 328 328 329 330 330 330 330 327 323 318 315 314 315 314 312 309 306 303 302 301 301 301 302 304 306 310 314 317 317 315 317 322 329 333 335 336 335 335 334 333 333 335 336 337 337 336 335 334 333 330 327 325 320 312 301 291
322 322 323 323 324 324 324 325 325 326 326 325 325 325 326 327 327 326 326 325 326 327 329 330 329 328 327 328 329 329 329 329 330 331 332 332 332 329 326 322 320 318 316 313 311 308 307 306 305 304 304 305 305 305 307 312 317 320 320 319 321 324 329 334 338 340 338 338 339 340 341 341 342 342 343 344 344 346 347 344 340 335 329 321 312 299
323 323 324 325 325 325 326 327 327 328 328 327 326 326 328 328 328 327 326 325 326 328 330 331 331 329 327 327 328 329 330 331 333 334 334 334 333 331 327 324 321 319 317 316 315 314 314 313 310 309 309 310 309 308 309 313 319 324 326 327 325 322 321 328 336 342 343 343 344 347 348 348 348 348 349 350 352 355 358 357 355 351 346 338 327 312
324 325 326 327 328 329 329 329 329 329 328 327 327 328 329 331 330 329 328 327 327 329 331 333 332 330 327 326 326 327 330 333 336 337 337 336 334 331 328 327 326 326 326 326 323 321 320 318 315 314 313 313 312 311 312 316 320 325 330 333 332 326 321 327 335 341 343 346 348 352 354 353 353 352 353 355 358 1 3 4 3 2 359 355 346 331
326 327 328 329 330 330 329 329 329 329 329 328 328 329 330 331 332 331 329 329 330 331 333 334 332 329 326 326 327 328 330 334 337 338 339 338 336 334 334 334 335 336 336 335 332 329 325 322 320 319 318 317 315 315 316 320 324 328 333 337 338 336 336 339 342 343 344 346 349 354 358 358 357 355 355 356 358 1 4 6 6 5 4 2 356 345
328 328 330 331 330 329 329 329 330 329 328 328 329 330 332 332 333 332 332 331 332 332 334 334 332 329 326 327 328 329 331 333 335 337 338 339 340 341 342 343 343 342 341 340 340 338 334 328 324 322 321 319 320 323 327 329 329 331 335 340 342 343 345 348 349 349 349 349 352 356 1 2 360 357 355 354 356 360 4 6 6 6 6 5 2 355
330 330 331 331 330 329 330 330 330 330 329 329 330 332 333 333 334 334 334 334 334 334 334 335 333 331 328 328 329 330 331 331 333 335 338 341 343 345 347 348 348 347 346 346 347 347 344 337 329 323 321 320 323 329 337 341 340 337 338 342 345 346 348 352 353 354 354 354 357 0 4 4 1 359 356 356 357 359 3 6 8 8 8 7 6 0
331 331 331 331 331 330 330 331 331 330 330 331 332 333 333 334 334 334 334 335 336 335 335 335 334 332 331 331 332 332 331 331 332 335 339 343 346 347 349 349 350 350 350 352 354 356 354 348 336 327 324 325 328 334 341 347 348 346 345 347 349 350 351 354 356 357 358 360 3 6 7 6 2 359 357 357 357 358 1 5 8 10 11 11 10 6
332 332 331 331 331 331 330 331 331 331 331 332 333 333 333 335 336 335 335 336 336 336 336 335 334 333 332 332 333 334 334 334 335 338 341 345 347 349 350 351 351 351 352 356 0 4 7 6 356 341 336 340 341 342 345 349 352 353 354 354 355 355 355 357 358 359 0 3 6 10 12 10 8 5 2 358 356 356 359 3 7 10 13 14 14 12
334 334 333 332 331 331 331 332 332 332 333 333 333 333 334 335 337 338 338 338 338 338 337 337 336 334 333 333 334 335 335 336 338 341 344 348 350 350 351 352 352 352 353 357 2 7 12 18 22 18 7 360 355 350 347 350 354 358 0 1 2 1 0 0 1 1 2 4 8 11 14 14 14 12 8 2 359 358 359 1 4 8 13 17 20 21
334 335 335 334 333 332 333 333 333 333 334 334 333 333 334 335 337 338 340 340 340 339 339 339 338 336 333 333 334 335 336 339 341 343 346 350 352 352 352 353 354 354 354 355 357 1 5 8 12 19 25 20 11 1 354 353 356 359 1 4 7 7 5 4 4 4 5 7 10 13 14 15 16 15 12 7 2 359 359 359 1 6 13 18 22 27
Height
1381 1378 1376 1376 1374 1372 1368 1369 1369 1367 1364 1362 1362 1361 1360 1359 1357 1356 1355 1354 1353 1351 1350 1348 1347 1346 1344 1343 1342 1341 1340 1339 1337 1336 1334 1333 1331 1330 1328 1326 1325 1323 1322 1321 1320 1318 1317 1316 1315 1314 1312 1311 1310 1309 1308 1307 1306 1305 1304 1303 1302 1302 1301 1301 1300 1300 1298 1298 1297 1296 1297 1296 1295 1294 1293 1293 1292 1292 1292 1292 1292 1292 1292 1292 1292 1292
1379 1376 1375 1374 1373 1371 1367 1366 1367 1366 1364 1361 1359 1359 1358 1356 1355 1353 1352 1351 1350 1348 1347 1345 1344 1342 1341 1340 1339 1337 1336 1335 1333 1332 1331 1329 1328 1326 1325 1323 1321 1320 1319 1317 1316 1315 1314 1313 1311 1310 1309 1308 1307 1306 1305 1304 1303 1302 1301 1300 1299 1298 1298 1297 1297 1296 1295 1294 1293 1293 1293 1292 1292 1291 1291 1290 1289 1289 1289 1288 1288 1288 1288 1288 1288 1288
1378 1375 1372 1372 1372 1370 1367 1365 1364 1364 1362 1360 1357 1356 1355 1353 1351 1350 1349 1348 1346 1346 1344 1343 1341 1340 1338 1336 1335 1334 1332 1331 1330 1328 1327 1326 1324 1323 1321 1320 1318 1317 1316 1314 1313 1312 1311 1309 1308 1307 1306 1305 1304 1303 1301 1301 1299 1298 1297 1296 1296 1295 1295 1294 1293 1293 1292 1291 1290 1290 1289 1289 1288 1288 1287 1286 1286 1286 1285 1285 1285 1285 1285 1285 1285 1285
1378 1375 1371 1370 1370 1368 1366 1364 1362 1360 1359 1357 1355 1354 1352 1351 1349 1347 1346 1345 1344 1342 1341 1340 1339 1337 1335 1333 1331 1330 1329 1327 1326 1325 1324 1322 1321 1320 1318 1316 1315 1314 1312 1311 1310 1308 1307 1306 1305 1304 1302 1301 1301 1300 1298 1297 1296 1295 1295 1294 1293 1292 1291 1290 1290 1289 1289 1288 1287 1286 1286 1285 1285 1284 1284 1283 1283 1282 1282 1282 1281 1281 1281 1281 1281 1281
1376 1375 1371 1370 1367 1365 1364 1362 1360 1358 1356 1355 1353 1351 1350 1349 1347 1345 1344 1343 1341 1340 1338 1337 1336 1334 1332 1330 1328 1327 1326 1325 1323 1322 1321 1319 1318 1316 1315 1313 1312 1310 1309 1307 1306 1305 1303 1302 1301 1300 1299 1298 1297 1296 1296 1294 1293 1292 1291 1291 1289 1288 1288 1287 1286 1286 1285 1284 1283 1283 1282 1281 1281 1281 1280 1280 1279 1279 1278 1278 1278 1277 1277 1277 1277 1277
1374 1373 1371 1369 1366 1363 1361 1359 1357 1356 1354 1352 1351 1349 1348 1346 1345 1343 1341 1340 1339 1337 1336 1334 1332 1331 1329 1327 1326 1324 1323 1322 1320 1319 1317 1316 1314 1312 1311 1310 1308 1306 1305 1304 1302 1301 1300 1299 1298 1297 1296 1295 1294 1293 1292 1291 1290 1289 1288 1287 1286 1286 1285 1284 1283 1281 1281 1280 1280 1279 1278 1278 1277 1277 1276 1276 1275 1275 1275 1274 1274 1274 1273 1273 1273 1273
1371 1370 1369 1367 1364 1361 1359 1357 1356 1354 1352 1350 1348 1347 1346 1344 1343 1341 1340 1338 1336 1334 1332 1331 1330 1328 1327 1325 1323 1321 1320 1318 1316 1315 1313 1311 1310 1309 1307 1306 1305 1303 1302 1301 1299 1298 1297 1296 1295 1294 1293 1292 1291 1290 1289 1288 1287 1286 1285 1284 1283 1282 1281 1280 1279 1278 1277 1276 1276 1275 1275 1274 1273 1273 1272 1272 1271 1271 1271 1271 1270 1270 1270 1269 1269 1269
1369 1367 1366 1365 1362 1359 1356 1355 1354 1353 1351 1349 1347 1345 1343 1341 1340 1339 1337 1336 1334 1332 1331 1328 1326 1325 1324 1322 1321 1319 1316 1314 1312 1311 1309 1307 1306 1305 1303 1302 1301 1300 1299 1297 1296 1295 1294 1293 1292 1291 1290 1289 1288 1286 1286 1285 1283 1283 1282 1281 1279 1278 1277 1276 1275 1274 1273 1273 1272 1271 1271 1270 1270 1269 1269 1268 1268 1267 1267 1267 1266 1266 1266 1265 1265 1265
1368 1365 1363 1362 1361 1358 1354 1352 1351 1351 1350 1348 1346 1344 1341 1338 1336 1335 1334 1333 1332 1331 1329 1326 1324 1321 1320 1319 1317 1315 1313 1311 1309 1307 1306 1304 1303 1301 1300 1299 1298 1296 1296 1294 1293 1292 1291 1290 1289 1288 1286 1286 1284 1283 1282 1281 1280 1279 1278 1276 1275 1274 1272 1271 1271 1270 1269 1269 1268 1268 1267 1266 1266 1266 1265 1265 1264 1264 1263 1263 1263 1262 1262 1261 1261 1261
1366 1364 1362 1359 1358 1356 1354 1351 1349 1349 1348 1347 1345 1343 1341 1338 1335 1332 1330 1329 1328 1328 1327 1325 1321 1318 1316 1314 1313 1312 1310 1308 1306 1305 1304 1302 1300 1299 1297 1296 1295 1293 1292 1291 1290 1289 1288 1287 1286 1284 1283 1282 1281 1280 1279 1277 1276 1275 1273 1272 1271 1269 1268 1268 1267 1266 1266 1265 1265 1264 1264 1263 1262 1262 1261 1261 1261 1260 1260 1259 1259 1259 1258 1257 1257 1257
1364 1363 1361 1358 1356 1354 1353 1351 1348 1347 1346 1345 1342 1341 1340 1338 1336 1332 1328 1325 1323 1323 1322 1321 1319 1316 1313 1311 1309 1308 1306 1304 1302 1301 1300 1299 1297 1296 1295 1293 1292 1291 1289 1288 1287 1286 1285 1284 1282 1281 1280 1279 1277 1276 1275 1273 1271 1270 1269 1267 1266 1266 1265 1264 1263 1263 1262 1261 1261 1261 1260 1260 1259 1259 1258 1258 1257 1256 1256 1255 1255 1255 1254 1254 1254 1253
1363 1361 1358 1356 1354 1352 1351 1349 1347 1346 1345 1343 1341 1338 1337 1336 1335 1332 1328 1324 1321 1319 1318 1316 1315 1314 1312 1309 1307 1305 1303 1301 1299 1297 1296 1295 1294 1292 1291 1290 1288 1287 1286 1285 1284 1283 1281 1281 1279 1278 1276 1275 1273 1272 1270 1269 1267 1266 1265 1264 1263 1262 1261 1261 1260 1259 1259 1258 1258 1257 1257 1256 1256 1255 1255 1254 1254 1253 1252 1251 1251 1251 1250 1250 1250 1249
1361 1359 1356 1354 1352 1351 1350 1348 1346 1344 1343 1342 1340 1337 1335 1333 1332 1330 1327 1323 1320 1317 1316 1313 1311 1310 1310 1308 1306 1304 1301 1299 1297 1295 1293 1292 1291 1290 1289 1287 1286 1284 1283 1281 1280 1279 1278 1276 1275 1273 1272 1270 1269 1268 1266 1265 1264 1262 1261 1260 1259 1258 1258 1257 1256 1256 1256 1255 1255 1254 1254 1253 1253 1252 1251 1251 1250 1249 1248 1248 1247 1247 1246 1246 1246 1245
1359 1357 1355 1353 1351 1350 1349 1347 1345 1343 1341 1340 1339 1336 1333 1331 1329 1327 1325 1321 1318 1316 1314 1311 1309 1307 1306 1306 1305 1302 1300 1297 1295 1293 1291 1290 1289 1288 1287 1285 1283 1281 1280 1278 1276 1274 1273 1272 1271 1269 1267 1266 1265 1264 1263 1261 1260 1259 1258 1257 1256 1256 1255 1254 1254 1253 1253 1252 1252 1251 1251 1250 1250 1249 1248 1247 1246 1245 1245 1244 1243 1243 1243 1242 1242 1241
1358 1356 1354 1352 1350 1349 1347 1346 1344 1342 1340 1338 1336 1334 1331 1329 1326 1325 1322 1318 1315 1313 1312 1310 1307 1305 1304 1303 1302 1301 1299 1296 1294 1291 1289 1288 1287 1286 1285 1282 1280 1278 1276 1275 1273 1271 1270 1269 1267 1265 1264 1262 1261 1260 1259 1258 1257 1256 1255 1254 1254 1253 1252 1251 1251 1250 1250 1249 1248 1248 1247 1247 1246 1245 1244 1243 1241 1241 1241 1241 1240 1239 1239 1239 1239 1238
1356 1355 1353 1351 1349 1347 1346 1345 1343 1340 1337 1336 1334 1332 1329 1326 1324 1322 1320 1316 1314 1312 1310 1308 1305 1301 1299 1299 1300 1299 1297 1295 1292 1289 1287 1285 1283 1283 1283 1280 1277 1274 1273 1272 1270 1268 1266 1266 1264 1262 1261 1259 1258 1257 1256 1255 1254 1253 1252 1252 1251 1250 1249 1249 1248 1247 1246 1246 1245 1244 1244 1243 1242 1241 1241 1239 1238 1237 1237 1237 1236 1236 1235 1235 1235 1235
1356 1354 1352 1350 1347 1345 1344 1342 1341 1338 1336 1333 1331 1330 1327 1325 1322 1319 1317 1315 1312 1311 1309 1307 1304 1300 1296 1294 1295 1296 1296 1294 1290 1287 1285 1282 1280 1280 1280 1278 1275 1271 1270 1269 1267 1265 1264 1262 1261 1259 1258 1256 1256 1255 1254 1253 1252 1251 1250 1249 1248 1247 1246 1245 1244 1243 1243 1242 1241 1241 1240 1239 1238 1237 1237 1236 1235 1234 1234 1233 1233 1232 1232 1232 1232 1232
1355 1353 1351 1349 1346 1344 1341 1340 1338 1336 1334 1332 1329 1327 1324 1322 1320 1318 1316 1314 1312 1310 1308 1306 1304 1301 1296 1292 1291 1292 1294 1292 1289 1285 1282 1279 1277 1276 1276 1275 1272 1270 1267 1266 1264 1262 1261 1260 1258 1256 1255 1254 1253 1252 1251 1250 1249 1248 1247 1246 1245 1244 1243 1241 1241 1240 1240 1239 1238 1237 1236 1236 1235 1234 1233 1232 1232 1231 1231 1230 1229 1229 1229 1229 1229 1229
1353 1351 1350 1347 1344 1341 1340 1338 1336 1334 1332 1330 1327 1324 1321 1319 1318 1316 1315 1313 1311 1309 1307 1304 1301 1299 1296 1292 1290 1290 1291 1290 1287 1284 1280 1277 1274 1273 1273 1273 1270 1267 1265 1263 1261 1260 1258 1256 1255 1254 1253 1251 1251 1250 1249 1247 1246 1245 1244 1243 1242 1241 1240 1239 1238 1237 1236 1235 1235 1234 1233 1232 1231 1231 1230 1229 1228 1228 1227 1226 1226 1226 1226 1226 1226 1225
1350 1349 1347 1345 1343 1340 1337 1336 1334 1333 1331 1328 1325 1322 1320 1318 1316 1315 1313 1311 1310 1308 1306 1303 1300 1297 1294 1291 1289 1288 1289 1288 1286 1282 1278 1275 1272 1271 1271 1270 1268 1265 1262 1260 1258 1256 1255 1254 1252 1251 1250 1249 1248 1246 1246 1244 1243 1242 1241 1240 1239 1237 1236 1236 1234 1233 1232 1232 1231 1230 1229 1228 1228 1227 1226 1226 1225 1224 1224 1223 1223 1223 1222 1222 1222 1221
1348 1346 1344 1343 1341 1339 1335 1333 1331 1330 1328 1326 1324 1321 1319 1317 1315 1313 1311 1309 1307 1305 1303 1301 1298 1295 1293 1291 1288 1286 1286 1286 1283 1280 1276 1272 1269 1268 1268 1267 1266 1262 1259 1256 1255 1254 1253 1251 1249 1248 1246 1246 1245 1244 1243 1242 1241 1239 1238 1237 1236 1234 1233 1232 1231 1230 1229 1228 1227 1226 1226 1225 1224 1223 1223 1222 1221 1221 1221 1220 1220 1219 1219 1219 1218 1218
1346 1343 1341 1341 1340 1337 1334 1331 1329 1328 1327 1326 1323 1321 1318 1316 1313 1311 1309 1307 1305 1303 1301 1298 1296 1294 1291 1289 1286 1284 1284 1284 1282 1279 1275 1271 1267 1265 1266 1265 1263 1260 1256 1254 1252 1251 1251 1249 1247 1246 1244 1243 1242 1241 1240 1239 1237 1236 1235 1233 1232 1231 1229 1228 1227 1226 1225 1224 1223 1223 1222 1221 1221 1220 1219 1218 1218 1217 1217 1216 1216 1216 1216 1215 1214 1214
1345 1342 1340 1338 1337 1335 1333 1330 1328 1327 1326 1325 1322 1320 1317 1315 1313 1310 1307 1305 1303 1301 1298 1296 1293 1291 1289 1286 1284 1282 1282 1281 1280 1278 1275 1270 1265 1262 1263 1263 1261 1258 1254 1252 1251 1250 1248 1246 1245 1243 1242 1240 1239 1238 1236 1235 1234 1232 1231 1230 1228 1227 1226 1225 1224 1223 1221 1221 1220 1219 1218 1217 1217 1216 1216 1215 1214 1214 1213 1213 1212 1212 1212 1211 1211 1211
1343 1341 1338 1337 1336 1334 1332 1330 1328 1326 1324 1323 1321 1318 1316 1314 1312 1309 1306 1304 1302 1299 1296 1293 1291 1288 1286 1284 1282 1281 1280 1280 1278 1276 1273 1269 1264 1261 1261 1260 1259 1256 1252 1250 1249 1248 1246 1243 1241 1240 1238 1236 1235 1234 1233 1231 1230 1229 1228 1226 1225 1224 1223 1222 1221 1220 1218 1217 1216 1215 1214 1214 1213 1212 1211 1211 1211 1210 1210 1209 1208 1208 1207 1207 1207 1206
1341 1339 1337 1336 1334 1333 1331 1329 1327 1325 1323 1321 1318 1316 1314 1312 1310 1307 1305 1302 1300 1298 1295 1292 1289 1286 1283 1282 1281 1279 1278 1278 1277 1275 1272 1268 1263 1260 1259 1259 1257 1254 1250 1247 1246 1245 1243 1240 1238 1236 1235 1233 1232 1231 1229 1228 1227 1226 1224 1223 1222 1221 1220 1219 1217 1216 1215 1214 1213 1212 1211 1210 1209 1208 1207 1207 1206 1206 1205 1205 1204 1203 1203 1203 1202 1202
1340 1338 1336 1335 1333 1331 1329 1327 1325 1323 1321 1319 1317 1314 1312 1310 1307 1305 1302 1301 1299 1296 1294 1290 1287 1284 1282 1280 1279 1277 1276 1276 1275 1273 1271 1267 1262 1258 1256 1256 1255 1252 1248 1245 1244 1243 1241 1237 1235 1233 1231 1229 1228 1227 1226 1225 1223 1222 1221 1220 1219 1218 1217 1216 1215 1213 1212 1211 1210 1208 1207 1206 1205 1204 1203 1202 1202 1201 1201 1200 1199 1199 1198 1198 1198 1197
1338 1336 1334 1332 1330 1328 1326 1324 1322 1320 1319 1317 1315 1313 1311 1308 1306 1303 1301 1299 1297 1295 1292 1289 1285 1282 1280 1278 1277 1275 1274 1273 1272 1271 1269 1266 1261 1257 1255 1254 1253 1251 1246 1243 1241 1240 1238 1235 1232 1230 1228 1226 1224 1223 1222 1221 1220 1219 1218 1217 1216 1215 1214 1213 1211 1210 1209 1207 1206 1205 1203 1202 1201 1200 1199 1198 1197 1196 1196 1195 1195 1194 1194 1194 1193 1192
1335 1333 1331 1329 1327 1325 1323 1321 1319 1317 1316 1314 1313 1311 1310 1307 1305 1302 1299 1297 1296 1294 1291 1288 1285 1281 1278 1276 1275 1273 1272 1271 1270 1269 1267 1265 1261 1256 1254 1253 1251 1249 1246 1241 1238 1236 1235 1232 1230 1227 1225 1223 1221 1220 1219 1218 1217 1217 1216 1215 1213 1212 1211 1209 1207 1206 1205 1203 1202 1201 1199 1198 1197 1196 1195 1194 1193 1192 1191 1191 1191 1191 1191 1190 1189 1188
1332 1330 1328 1326 1324 1322 1320 1318 1316 1315 1313 1311 1310 1309 1308 1306 1304 1301 1298 1296 1294 1292 1290 1287 1285 1282 1278 1275 1273 1271 1270 1269 1268 1267 1266 1263 1259 1255 1253 1252 1250 1248 1245 1240 1235 1232 1231 1230 1228 1226 1223 1221 1220 1218 1217 1216 1215 1214 1212 1211 1209 1207 1206 1205 1203 1202 1201 1199 1198 1196 1195 1194 1193 1191 1191 1190 1189 1188 1187 1187 1187 1187 1186 1186 1185 1184
1329 1327 1325 1323 1321 1319 1317 1315 1313 1312 1310 1309 1308 1307 1305 1304 1301 1299 1296 1295 1293 1291 1288 1286 1283 1281 1278 1275 1271 1268 1267 1267 1267 1266 1265 1261 1257 1254 1252 1250 1248 1246 1245 1241 1235 1229 1225 1225 1225 1225 1222 1220 1218 1216 1215 1213 1212 1210 1208 1206 1205 1203 1202 1201 1200 1198 1197 1196 1194 1193 1191 1190 1189 1187 1186 1185 1184 1183 1182 1182 1182 1182 1181 1181 1179 1178
1326 1324 1322 1320 1318 1316 1315 1313 1311 1310 1308 1307 1306 1304 1303 1301 1299 1297 1295 1294 1292 1290 1287 1285 1282 1280 1278 1275 1272 1268 1265 1264 1264 1265 1263 1260 1256 1252 1251 1249 1247 1245 1244 1242 1238 1231 1223 1219 1219 1220 1221 1219 1216 1215 1213 1211 1210 1208 1206 1204 1202 1200 1199 1198 1197 1196 1194 1192 1191 1189 1187 1185 1184 1182 1181 1180 1179 1178 1177 1177 1177 1177 1176 1175 1174 1173
1324 1322 1320 1318 1316 1314 1313 1311 1309 1308 1306 1305 1303 1301 1300 1299 1297 1296 1294 1292 1291 1288 1286 1283 1281 1279 1277 1275 1272 1269 1265 1262 1262 1262 1262 1259 1255 1251 1250 1248 1246 1244 1243 1242 1240 1235 1228 1220 1215 1214 1216 1216 1214 1212 1211 1209 1208 1206 1204 1202 1200 1198 1197 1196 1194 1192 1190 1188 1186 1184 1182 1181 1179 1177 1176 1175 1174 1173 1172 1172 1172 1172 1172 1171 1169 1167
1322 1320 1318 1316 1314 1312 1311 1310 1308 1306 1305 1303 1301 1300 1298 1297 1295 1294 1292 1291 1289 1287 1285 1282 1280 1277 1275 1273 1271 1268 1265 1262 1261 1261 1260 1258 1254 1251 1248 1247 1245 1242 1241 1240 1238 1236 1231 1224 1217 1213 1212 1211 1211 1211 1209 1207 1206 1204 1203 1201 1198 1196 1194 1192 1191 1188 1186 1184 1181 1179 1178 1176 1175 1173 1172 1171 1170 1169 1168 1167 1167 1167 1167 1166 1165 1163
1320 1318 1316 1314 1313 1311 1310 1308 1306 1305 1303 1301 1300 1298 1296 1295 1293 1291 1290 1288 1287 1285 1283 1281 1279 1276 1273 1271 1268 1265 1263 1261 1260 1260 1258 1256 1253 1250 1247 1245 1243 1241 1239 1237 1235 1233 1230 1225 1221 1216 1212 1209 1208 1208 1207 1206 1204 1202 1201 1199 1196 1194 1191 1189 1187 1185 1182 1180 1178 1176 1174 1172 1171 1169 1168 1166 1165 1164 1163 1163 1162 1162 1162 1161 1161 1160
1318 1316 1315 1313 1312 1310 1308 1306 1305 1303 1301 1300 1298 1296 1295 1293 1291 1290 1288 1286 1285 1283 1281 1280 1278 1276 1273 1270 1267 1263 1261 1259 1258 1257 1256 1255 1252 1249 1246 1244 1242 1241 1238 1235 1233 1231 1227 1224 1221 1218 1214 1209 1206 1205 1205 1204 1202 1201 1198 1196 1194 1191 1188 1186 1184 1181 1179 1177 1174 1172 1170 1168 1166 1165 1163 1162 1161 1160 1159 1158 1157 1157 1157 1156 1156 1156
1317 1316 1314 1312 1311 1309 1307 1305 1303 1301 1300 1298 1296 1294 1293 1291 1289 1288 1286 1284 1282 1281 1279 1277 1276 1274 1272 1270 1267 1263 1260 1257 1256 1255 1254 1253 1251 1248 1246 1243 1241 1239 1237 1234 1231 1229 1226 1222 1219 1217 1215 1211 1206 1202 1201 1201 1200 1198 1196 1193 1191 1188 1186 1183 1181 1179 1176 1173 1171 1168 1166 1164 1162 1161 1159 1158 1157 1156 1155 1154 1153 1152 1152 1151 1151 1151
1317 1315 1313 1312 1310 1308 1306 1304 1301 1300 1298 1296 1294 1292 1291 1289 1287 1286 1284 1282 1280 1278 1276 1275 1273 1271 1270 1268 1266 1263 1259 1256 1254 1253 1252 1251 1249 1247 1245 1241 1240 1238 1236 1234 1231 1228 1225 1222 1219 1216 1214 1211 1208 1204 1200 1198 1196 1195 1192 1190 1187 1185 1182 1180 1178 1176 1174 1171 1168 1166 1164 1162 1160 1158 1156 1155 1153 1152 1151 1150 1149 1148 1147 1147 1147 1146
1316 1314 1312 1311 1309 1306 1304 1302 1300 1298 1297 1295 1293 1291 1289 1287 1286 1283 1281 1280 1277 1276 1274 1272 1270 1268 1266 1265 1263 1260 1258 1255 1253 1251 1250 1249 1247 1246 1243 1240 1238 1236 1235 1233 1230 1228 1225 1222 1219 1216 1212 1210 1207 1204 1201 1198 1195 1192 1189 1186 1185 1182 1180 1177 1176 1174 1171 1169 1167 1164 1162 1160 1158 1156 1154 1152 1150 1149 1147 1146 1145 1144 1143 1143 1142 1142
1316 1313 1311 1310 1307 1306 1303 1301 1299 1297 1296 1294 1292 1290 1288 1286 1284 1282 1280 1278 1276 1274 1272 1270 1268 1266 1263 1261 1260 1258 1256 1253 1251 1250 1248 1247 1246 1244 1242 1239 1236 1234 1233 1231 1230 1228 1226 1223 1220 1217 1213 1209 1206 1202 1200 1198 1195 1191 1187 1184 1181 1179 1178 1176 1174 1172 1170 1167 1165 1163 1160 1158 1156 1154 1152 1150 1148 1146 1144 1142 1141 1140 1140 1139 1138 1138
1315 1312 1310 1308 1306 1305 1303 1301 1298 1296 1294 1292 1290 1288 1286 1284 1282 1280 1278 1276 1274 1272 1270 1268 1266 1263 1261 1259 1257 1255 1253 1251 1250 1248 1247 1245 1244 1242 1240 1238 1235 1232 1231 1229 1228 1227 1225 1223 1220 1217 1215 1211 1206 1202 1199 1196 1194 1191 1188 1184 1180 1177 1175 1174 1172 1170 1168 1166 1164 1161 1159 1156 1154 1152 1150 1148 1146 1144 1142 1141 1139 1138 1137 1136 1135 1134
1314 1311 1309 1307 1305 1303 1301 1300 1297 1295 1293 1291 1289 1287 1285 1283 1281 1278 1276 1274 1272 1270 1268 1266 1264 1261 1259 1256 1255 1253 1251 1250 1248 1246 1245 1243 1242 1240 1238 1236 1234 1232 1230 1228 1227 1226 1224 1222 1219 1216 1213 1210 1206 1203 1199 1196 1193 1191 1189 1186 1181 1177 1174 1172 1171 1169 1167 1165 1162 1160 1158 1155 1153 1151 1148 1146 1144 1142 1141 1139 1137 1136 1134 1134 1133 1132
1313 1310 1308 1306 1304 1302 1300 1298 1296 1294 1292 1290 1288 1286 1284 1282 1280 1277 1275 1272 1270 1268 1266 1264 1262 1259 1256 1254 1252 1251 1250 1248 1247 1245 1243 1242 1240 1238 1237 1235 1233 1231 1230 1228 1226 1224 1221 1220 1217 1214 1211 1209 1206 1202 1198 1195 1192 1191 1189 1186 1181 1177 1173 1171 1170 1169 1166 1164 1161 1159 1157 1154 1152 1149 1147 1145 1143 1141 1139 1137 1136 1134 1133 1131 1131 1130
1311 1310 1307 1305 1303 1301 1299 1297 1295 1293 1291 1289 1287 1285 1283 1281 1279 1277 1275 1272 1270 1267 1265 1263 1261 1258 1255 1252 1250 1249 1248 1246 1245 1244 1242 1240 1239 1237 1236 1234 1233 1231 1229 1226 1223 1221 1219 1217 1215 1213 1210 1208 1205 1202 1198 1194 1191 1189 1187 1185 1182 1179 1174 1170 1168 1167 1165 1163 1161 1158 1156 1154 1151 1149 1146 1144 1141 1139 1137 1136 1134 1133 1131 1130 1129 1127
1311 1308 1306 1304 1302 1300 1298 1296 1294 1292 1290 1288 1286 1284 1282 1280 1278 1276 1274 1271 1269 1266 1264 1262 1259 1257 1254 1252 1249 1247 1246 1244 1243 1242 1240 1239 1238 1236 1235 1233 1231 1228 1226 1225 1222 1219 1216 1215 1213 1211 1209 1207 1205 1201 1198 1195 1191 1189 1186 1184 1182 1180 1177 1172 1168 1166 1164 1162 1160 1158 1156 1153 1151 1148 1145 1143 1140 1138 1136 1133 1132 1130 1129 1128 1126 1126
1310 1308 1306 1303 1301 1299 1297 1295 1293 1291 1289 1287 1285 1283 1281 1279 1277 1276 1273 1271 1268 1266 1263 1261 1259 1256 1254 1251 1249 1246 1244 1242 1241 1240 1239 1237 1236 1235 1233 1231 1229 1226 1225 1223 1221 1219 1216 1213 1211 1209 1207 1206 1204 1201 1198 1195 1192 1189 1186 1184 1181 1179 1176 1172 1170 1167 1164 1162 1159 1157 1155 1153 1150 1147 1144 1141 1139 1136 1134 1132 1130 1128 1126 1125 1124 1123
1309 1307 1305 1302 1300 1298 1296 1294 1292 1290 1288 1286 1284 1282 1280 1278 1276 1274 1272 1270 1268 1265 1263 1261 1259 1257 1254 1251 1249 1246 1243 1241 1240 1238 1237 1236 1234 1233 1231 1229 1227 1226 1223 1221 1220 1218 1216 1213 1211 1208 1206 1204 1202 1201 1198 1196 1192 1189 1186 1183 1180 1178 1175 1172 1170 1167 1165 1162 1159 1157 1154 1152 1149 1147 1144 1141 1138 1135 1133 1131 1128 1126 1125 1123 1122 1121
1308 1306 1304 1301 1300 1298 1296 1294 1291 1290 1287 1285 1283 1281 1279 1277 1275 1273 1271 1269 1267 1265 1262 1260 1258 1257 1254 1252 1249 1247 1244 1242 1240 1238 1236 1234 1232 1231 1229 1227 1226 1224 1222 1221 1218 1216 1214 1212 1210 1208 1206 1204 1202 1199 1197 1195 1192 1190 1186 1183 1180 1177 1175 1172 1170 1167 1165 1162 1160 1157 1154 1151 1149 1146 1143 1140 1137 1134 1131 1129 1127 1125 1123 1121 1120 1118
1307 1305 1303 1301 1299 1297 1295 1293 1291 1289 1286 1284 1282 1280 1278 1276 1275 1272 1270 1268 1266 1264 1262 1260 1258 1256 1254 1251 1249 1247 1246 1243 1241 1238 1236 1234 1231 1230 1228 1226 1224 1223 1221 1219 1217 1216 1214 1212 1210 1208 1206 1205 1202 1200 1196 1194 1192 1190 1187 1184 1181 1178 1175 1172 1170 1167 1165 1163 1160 1157 1155 1152 1149 1146 1143 1140 1136 1133 1131 1128 1126 1123 1121 1119 1117 1116
1307 1305 1303 1301 1298 1296 1294 1292 1290 1288 1286 1283 1281 1278 1277 1275 1274 1272 1270 1268 1266 1264 1262 1260 1257 1255 1253 1251 1249 1247 1246 1243 1241 1238 1236 1234 1231 1229 1227 1225 1223 1221 1220 1218 1216 1215 1213 1212 1210 1209 1207 1205 1203 1200 1197 1194 1192 1190 1187 1185 1182 1179 1176 1173 1170 1168 1165 1163 1160 1157 1155 1153 1150 1147 1144 1141 1137 1134 1131 1127 1125 1122 1120 1118 1116 1114
1306 1304 1302 1300 1298 1296 1294 1292 1290 1288 1285 1283 1281 1278 1276 1274 1272 1271 1269 1267 1266 1264 1262 1260 1257 1255 1253 1251 1249 1247 1245 1243 1241 1238 1236 1234 1232 1230 1227 1225 1223 1221 1219 1217 1215 1213 1212 1211 1210 1209 1207 1205 1203 1201 1198 1195 1193 1190 1187 1185 1182 1180 1177 1174 1171 1168 1166 1163 1161 1158 1155 1153 1150 1147 1144 1141 1138 1134 1131 1127 1125 1121 1119 1116 1114 1113
1305 1303 1301 1300 1298 1296 1293 1291 1289 1287 1285 1282 1280 1278 1275 1273 1271 1270 1268 1266 1265 1263 1261 1259 1257 1256 1253 1251 1249 1247 1245 1243 1241 1238 1236 1234 1232 1230 1228 1226 1224 1222 1219 1217 1215 1213 1211 1210 1209 1208 1207 1206 1204 1202 1200 1197 1194 1191 1188 1185 1183 1181 1178 1175 1172 1169 1167 1164 1161 1159 1156 1153 1150 1147 1145 1142 1138 1135 1131 1128 1125 1121 1118 1116 1113 1111